EST,Max TemperatureF,Mean TemperatureF,Min TemperatureF,Max Dew PointF,MeanDew PointF,Min DewpointF,Max Humidity, Mean Humidity, Min Humidity, Max Sea Level PressureIn, Mean Sea Level PressureIn, Min Sea Level PressureIn, Max VisibilityMiles, Mean VisibilityMiles, Min VisibilityMiles, Max Wind SpeedMPH, Mean Wind SpeedMPH, Max Gust SpeedMPH,PrecipitationIn, CloudCover, Events, WindDirDegrees
2012-12-1,52,44,35,50,37,31,90,83,75,30.21,30.05,29.84,7,4,2,14,9,21,0.47,7,Rain,136
2012-12-2,51,46,39,48,43,36,90,85,77,30.09,29.95,29.82,10,5,0,16,7,22,0.04,8,Fog-Rain,299
2012-12-3,65,48,32,58,47,30,91,88,77,30.09,29.89,29.71,10,4,0,25,8,37,0.02,7,Fog-Rain,161
2012-12-4,51,42,32,50,34,15,89,67,48,30.23,30.00,29.79,10,10,4,16,10,24,0.00,1,,279
2012-12-5,37,30,24,23,20,17,78,63,52,30.42,30.34,30.24,10,10,10,15,9,23,0.00,4,,35
2012-12-6,44,37,31,39,28,22,82,70,64,30.25,30.03,29.87,10,10,7,16,9,23,0.00,5,,175
2012-12-7,43,40,35,38,32,26,81,74,62,29.96,29.93,29.87,10,10,10,10,6,,0.00,5,,354
2012-12-8,37,34,30,32,28,25,90,81,66,30.17,30.02,29.92,10,9,1,8,4,,0.04,7,Snow,39
2012-12-9,32,30,27,30,27,24,89,85,77,30.19,29.98,29.68,10,6,0,16,7,28,0.00,5,Snow,83
2012-12-10,35,32,28,28,26,23,90,80,68,29.89,29.74,29.63,10,8,1,13,3,21,0.05,8,Snow,8
2012-12-11,35,31,27,27,23,20,88,70,57,30.03,29.93,29.88,10,8,1,22,8,31,0.01,8,Snow,212
2012-12-12,41,36,31,32,27,21,86,69,61,30.23,30.17,30.04,10,10,4,16,10,25,0.00,3,Snow,223
2012-12-13,46,42,40,36,32,27,80,68,58,30.22,30.14,30.05,10,10,10,23,15,36,0.00,0,,216
2012-12-14,44,34,25,32,27,23,90,74,47,30.22,30.16,30.11,10,9,3,8,2,,0.00,0,,108
2012-12-15,41,36,30,38,33,26,89,83,67,30.11,29.84,29.55,10,6,2,18,8,28,0.35,6,Rain,118
2012-12-16,46,43,40,44,40,36,91,89,84,29.65,29.56,29.52,10,3,0,12,6,18,0.17,8,Fog-Rain,243
2012-12-17,40,34,27,36,31,25,89,80,74,29.71,29.68,29.65,10,10,7,9,5,,0.00,7,,288
2012-12-18,38,32,27,32,29,23,90,79,64,29.76,29.71,29.68,10,8,2,9,2,,0.00,7,Rain-Snow,141
2012-12-19,37,35,33,32,30,27,92,81,71,30.09,29.98,29.77,10,8,2,9,2,,0.03,8,Rain-Snow,220
2012-12-20,36,36,35,33,32,30,89,88,81,30.01,29.46,29.14,10,4,0,21,12,30,1.16,8,Rain-Snow,67
2012-12-21,35,32,30,32,28,21,89,79,69,30.05,29.68,29.23,10,5,1,34,23,48,0.06,8,Snow,348
2012-12-22,35,32,30,25,22,21,73,70,62,30.10,30.04,29.92,10,10,10,17,10,25,0.00,5,,295
2012-12-23,32,30,25,26,20,17,77,68,57,30.05,29.97,29.88,10,10,10,15,7,21,0.00,6,,356
2012-12-24,30,26,21,23,18,15,87,76,67,30.06,29.98,29.91,10,10,7,9,5,,0.00,8,Snow,94
2012-12-25,30,26,23,25,22,17,88,79,64,30.35,30.26,30.07,10,10,5,12,1,17,0.00,8,Snow,77
2012-12-26,30,26,22,19,16,14,76,69,62,30.33,30.17,30.08,10,10,5,15,8,23,0.00,4,Snow,38
2012-12-27,32,28,23,21,19,16,78,69,60,30.17,30.13,30.08,10,10,10,12,6,20,0.00,6,Snow,32
2012-12-28,30,28,27,27,22,19,88,78,68,30.14,30.06,29.93,10,7,2,7,3,,0.00,8,Snow,117
2012-12-29,32,27,23,27,23,20,89,81,63,30.07,29.94,29.89,10,6,2,9,3,17,0.00,7,Snow,54
2012-12-30,32,28,23,26,21,16,83,76,71,30.23,30.15,30.02,10,10,10,14,9,20,0.00,7,,247
2012-12-31,37,30,22,30,22,12,83,68,59,30.07,29.97,29.90,10,10,7,24,13,30,0.01,7,Snow,299